Dewpoint
72 74 77 75 75 74 74 74 75 75 75 76 76 76 75 75 75 74 74 74 74 74 74 74 73 74 74 75 74 73 74 75 74 75 74 74 74 75 75 75 75 73 74
73 75 77 75 74 74 74 74 75 75 74 75 75 75 74 74 74 74 73 73 73 74 74 74 74 74 74 75 74 73 73 73 73 73 73 75 75 75 75 75 75 73 73
73 74 75 77 75 74 74 74 74 74 74 74 74 74 74 74 74 73 73 73 73 73 73 74 73 73 73 74 74 74 73 73 73 74 72 72 72 73 73 72 73 72 72
72 74 74 77 77 75 75 74 74 74 74 74 74 73 73 73 73 73 73 72 73 73 73 74 73 73 73 73 73 74 74 74 73 74 72 72 73 75 74 75 75 74 72
73 74 75 77 77 76 76 75 74 74 74 74 74 74 73 73 73 73 72 72 73 73 73 73 73 73 72 73 72 72 72 74 74 72 69 70 70 74 75 75 76 75 76
74 75 76 76 76 76 75 75 75 75 74 73 74 73 73 73 74 73 72 72 73 73 74 73 72 72 71 72 72 72 72 71 72 69 67 69 70 74 74 74 75 73 74
74 74 74 77 77 77 75 75 75 75 75 74 74 74 74 73 73 73 72 73 73 73 73 72 72 71 71 71 71 71 71 72 71 71 68 65 67 73 74 73 73 73 74
73 74 74 75 76 75 75 75 75 74 74 74 74 74 73 73 73 73 73 73 73 74 73 73 71 71 71 71 71 71 71 71 71 70 68 66 67 71 73 73 72 72 72
73 73 74 73 74 75 76 75 75 74 75 75 75 74 75 74 74 74 74 74 74 73 74 72 71 71 71 72 72 72 71 71 71 70 67 67 68 71 72 73 74 73 72
73 73 73 72 73 74 73 75 75 75 75 75 75 74 75 75 74 74 75 74 74 74 73 72 72 73 74 74 74 74 73 71 70 71 70 68 68 70 71 71 74 74 74
71 71 72 72 73 73 73 74 75 75 75 75 74 74 74 73 73 74 75 75 74 73 72 72 74 72 72 72 73 74 74 72 70 70 70 70 71 70 70 71 74 74 76
68 69 70 71 72 72 72 73 73 73 73 73 73 73 73 72 72 73 74 74 74 73 72 74 73 71 71 71 71 71 72 72 72 71 70 72 73 72 73 75 75 75 74
67 69 70 71 71 72 72 72 72 72 72 72 73 73 73 72 72 73 73 74 74 74 73 73 72 72 71 71 68 70 71 72 71 71 71 71 72 73 74 76 75 75 75
66 67 70 70 70 71 72 72 71 71 71 71 72 72 72 72 71 71 72 73 72 72 72 72 73 72 70 70 71 72 72 72 71 70 69 71 74 74 74 75 75 74 74
64 65 68 69 69 71 71 71 71 71 71 71 71 71 72 71 71 70 72 73 71 71 72 72 72 72 70 71 71 70 72 70 71 71 69 71 74 75 75 75 75 75 74
65 66 67 69 69 71 71 70 71 71 70 70 71 71 71 71 70 67 68 70 70 71 72 71 69 70 70 70 70 70 72 73 73 72 71 71 73 75 75 75 76 76 75
65 66 67 69 69 71 71 70 71 71 70 70 70 70 70 69 66 66 66 65 69 69 71 71 71 71 71 70 70 70 73 73 72 72 71 71 72 75 75 75 75 75 75
65 66 68 69 69 70 70 70 70 70 69 70 70 70 70 69 66 67 68 70 71 70 71 70 70 70 70 70 70 71 73 72 72 73 72 72 72 72 74 76 76 76 76
63 65 68 68 68 69 70 70 70 70 69 68 70 70 69 67 66 68 70 71 71 71 71 70 69 69 70 70 70 70 71 72 72 72 73 72 71 72 72 73 76 76 75
62 65 68 68 69 69 69 69 69 69 69 68 68 68 68 67 67 69 70 71 71 70 70 70 68 68 69 70 69 69 71 72 71 70 71 71 72 72 73 72 73 75 76
63 65 67 68 69 69 68 68 68 68 68 69 69 69 67 67 67 69 70 70 71 70 67 70 69 68 68 69 67 66 68 69 69 69 69 71 72 71 72 73 73 73 74
66 66 66 67 68 68 67 68 68 68 69 68 69 69 68 67 67 69 71 69 69 69 67 68 68 68 68 68 66 64 60 60 65 68 69 69 70 71 72 72 73 72 73
65 66 66 67 68 68 68 68 69 70 70 69 68 69 68 67 68 68 70 68 69 69 67 67 70 67 67 68 67 63 61 60 63 66 66 68 69 70 71 70 72 72 72
64 66 66 67 67 67 70 68 67 67 66 68 68 68 70 68 68 70 70 70 70 71 70 70 71 69 67 66 68 68 66 65 62 62 65 66 66 66 69 70 67 71 72
63 65 65 66 67 67 69 68 67 66 66 67 68 68 69 70 68 69 70 71 71 70 69 70 67 67 69 68 66 68 66 66 66 64 59 60 62 63 67 68 68 67 71
63 64 65 66 67 67 68 68 67 66 66 67 67 68 68 70 70 68 69 70 70 71 69 69 67 66 64 69 69 69 67 66 65 63 61 59 60 62 66 67 67 69 70
Lifted_Index
-5 -5 -5 -4 -4 -3 -3 -3 -4 -4 -4 -5 -5 -5 -5 -5 -5 -5 -6 -6 -7 -7 -7 -7 -7 -6 -6 -6 -6 -6 -6 -6 -6 -6 -6 -7 -7 -7 -8 -8 -7 -7 -6
-5 -5 -5 -5 -4 -4 -3 -3 -4 -4 -4 -4 -4 -4 -4 -4 -5 -5 -5 -6 -6 -7 -7 -7 -7 -6 -6 -6 -6 -6 -6 -6 -6 -6 -6 -6 -7 -7 -7 -7 -7 -6 -6
-5 -5 -6 -6 -5 -4 -4 -4 -4 -4 -4 -4 -4 -4 -4 -4 -4 -4 -5 -5 -6 -6 -7 -7 -6 -6 -6 -6 -7 -6 -6 -6 -6 -6 -6 -6 -6 -6 -6 -6 -6 -6 -5
-5 -5 -6 -6 -6 -5 -4 -4 -4 -4 -4 -4 -4 -4 -4 -4 -4 -4 -5 -5 -6 -6 -6 -6 -6 -6 -6 -6 -6 -6 -6 -6 -6 -6 -6 -6 -6 -6 -6 -7 -7 -6 -6
-5 -5 -6 -6 -6 -5 -5 -4 -4 -4 -4 -4 -4 -4 -4 -4 -4 -4 -5 -5 -6 -6 -6 -6 -6 -5 -5 -5 -5 -5 -5 -5 -5 -5 -5 -6 -6 -7 -7 -7 -7 -7 -7
-5 -5 -6 -6 -6 -5 -5 -5 -4 -4 -4 -4 -4 -4 -4 -4 -4 -4 -5 -5 -6 -6 -6 -6 -6 -5 -5 -4 -4 -4 -4 -4 -4 -3 -3 -4 -5 -6 -6 -6 -7 -7 -7
-5 -5 -5 -6 -6 -5 -5 -5 -4 -4 -4 -4 -4 -4 -4 -4 -4 -4 -5 -5 -5 -6 -6 -6 -5 -5 -5 -4 -4 -4 -4 -4 -3 -2 -2 -3 -4 -5 -6 -6 -6 -6 -6
-4 -5 -5 -5 -5 -5 -5 -5 -4 -4 -4 -4 -5 -5 -5 -5 -5 -5 -5 -5 -5 -5 -5 -5 -5 -5 -4 -4 -4 -4 -4 -3 -3 -2 -2 -1 -2 -4 -5 -6 -6 -6 -6
-4 -4 -4 -4 -4 -5 -5 -5 -4 -4 -4 -5 -5 -5 -5 -5 -5 -5 -5 -5 -5 -5 -5 -4 -4 -4 -4 -4 -4 -4 -4 -3 -2 -2 -1 -1 -1 -3 -4 -5 -6 -6 -6
-3 -3 -3 -4 -4 -4 -5 -5 -4 -4 -4 -5 -5 -5 -5 -5 -5 -5 -5 -5 -5 -5 -4 -4 -4 -4 -4 -3 -4 -4 -4 -3 -2 -2 -1 -1 -1 -2 -3 -4 -6 -6 -7
-3 -3 -3 -3 -4 -4 -4 -4 -4 -4 -4 -4 -4 -5 -5 -5 -5 -5 -5 -5 -5 -5 -4 -4 -4 -3 -3 -2 -3 -3 -3 -2 -2 -2 -1 -2 -2 -2 -3 -4 -6 -7 -7
-3 -3 -3 -3 -4 -4 -4 -4 -4 -4 -4 -4 -4 -4 -4 -4 -4 -5 -5 -5 -5 -4 -4 -4 -3 -2 -1 -1 -1 -1 -2 -2 -2 -2 -2 -2 -3 -3 -4 -5 -6 -7 -7
-2 -2 -2 -3 -3 -3 -4 -4 -4 -3 -3 -3 -4 -4 -4 -4 -4 -4 -4 -5 -4 -4 -3 -3 -3 -2 -1 -0 -0 -1 -1 -2 -2 -2 -2 -2 -3 -4 -5 -6 -6 -6 -6
-1 -2 -2 -2 -3 -3 -3 -4 -3 -3 -3 -3 -3 -3 -3 -3 -3 -3 -4 -4 -4 -3 -3 -2 -2 -2 -1 -0 -0 -1 -1 -2 -2 -2 -2 -3 -4 -5 -5 -6 -6 -6 -6
-1 -1 -2 -2 -2 -3 -3 -3 -3 -2 -2 -2 -2 -2 -3 -3 -3 -3 -3 -4 -3 -3 -2 -2 -2 -1 -1 -1 -1 -1 -2 -2 -2 -2 -2 -3 -4 -5 -5 -5 -6 -6 -5
-1 -1 -2 -2 -2 -3 -3 -3 -2 -2 -2 -2 -2 -2 -2 -2 -2 -2 -2 -3 -3 -2 -2 -2 -2 -1 -1 -1 -1 -1 -2 -3 -3 -3 -3 -3 -4 -5 -5 -5 -5 -5 -5
-1 -2 -2 -3 -3 -3 -3 -3 -2 -2 -2 -2 -2 -2 -2 -2 -1 -1 -1 -2 -2 -2 -1 -1 -2 -2 -1 -1 -1 -2 -2 -3 -3 -3 -3 -3 -3 -4 -5 -5 -5 -5 -5
-2 -2 -3 -3 -3 -3 -4 -3 -3 -3 -3 -2 -2 -2 -2 -1 -1 -1 -2 -2 -2 -2 -1 -2 -2 -2 -2 -2 -2 -2 -2 -2 -2 -3 -3 -3 -3 -3 -4 -5 -5 -5 -5
-2 -2 -3 -3 -3 -3 -3 -3 -3 -3 -3 -2 -2 -2 -2 -1 -1 -1 -2 -2 -3 -2 -2 -2 -2 -2 -2 -2 -2 -2 -2 -2 -2 -2 -3 -3 -3 -3 -3 -4 -5 -5 -5
-1 -2 -3 -3 -3 -3 -3 -3 -3 -2 -2 -2 -2 -2 -2 -1 -1 -1 -2 -2 -2 -2 -2 -2 -2 -2 -2 -2 -2 -2 -2 -2 -2 -2 -2 -2 -2 -3 -3 -3 -4 -5 -5
-2 -2 -2 -3 -3 -3 -3 -3 -2 -2 -2 -2 -2 -2 -2 -1 -1 -1 -2 -2 -2 -2 -2 -2 -2 -2 -2 -2 -2 -2 -2 -2 -1 -1 -1 -2 -2 -2 -3 -3 -3 -4 -4
-2 -2 -2 -3 -3 -3 -2 -2 -2 -2 -2 -2 -2 -2 -2 -1 -1 -1 -2 -2 -2 -2 -2 -2 -2 -2 -2 -2 -1 -1 -1 -1 -1 -1 -1 -2 -2 -2 -3 -3 -3 -4 -4
-3 -3 -2 -3 -3 -3 -3 -2 -2 -2 -2 -2 -2 -2 -2 -2 -1 -1 -2 -2 -2 -2 -2 -2 -2 -2 -2 -2 -2 -1 -1 -1 -1 -1 -1 -2 -2 -2 -3 -3 -3 -4 -4
-2 -2 -2 -2 -3 -3 -3 -3 -2 -2 -2 -2 -2 -2 -2 -2 -2 -2 -2 -2 -2 -2 -2 -2 -2 -2 -1 -1 -2 -2 -2 -1 -1 -1 -1 -1 -1 -2 -2 -3 -3 -3 -3
-2 -2 -2 -2 -2 -2 -3 -3 -2 -2 -2 -2 -2 -2 -2 -2 -2 -2 -2 -2 -2 -2 -2 -2 -1 -1 -1 -1 -1 -2 -2 -1 -1 -1 -1 -1 -1 -2 -2 -2 -3 -3 -3
-2 -2 -2 -2 -2 -2 -3 -3 -2 -2 -2 -2 -2 -2 -2 -2 -2 -2 -2 -2 -2 -3 -2 -2 -1 -1 -1 -1 -1 -1 -1 -1 -1 -1 -1 -1 -2 -2 -2 -2 -2 -2 -2